Simultaneous Nadir Overpasses (SNOs) Predictions

Prediction of SNOs between FY3D and TERRA Satellite Orbit:

Table of predicted SNOs for the next 14.0 days since TLE Epoch: 3/18/2023
Index Date (FY3D) Time (FY3D) Lat,Lon (FY3D) SZA (FY3D ) Date (TERRA) Time (TERRA) Lat,Lon (TERRA) SZA (TERRA ) Distance(km) Time Diff (sec)
1 03/18/2023 09:54:09 73.38, 30.58 74.29 03/18/2023 09:55:19 73.26, 31.57 74.15 33.88 70
2 03/18/2023 10:44:46 -73.01,-161.28 106.11 03/18/2023 10:44:48 -73.01,-161.29 106.12 0.90 2
3 03/18/2023 11:35:26 72.65, 6.80 73.51 03/18/2023 11:34:15 72.68, 5.74 73.55 35.24 71
4 03/20/2023 21:58:26 -73.88, 28.39 106.19 03/20/2023 21:59:31 -73.78, 31.54 106.32 98.02 65
5 03/20/2023 22:48:56 73.03,-162.32 72.92 03/20/2023 22:49:06 73.04,-162.33 72.93 1.06 10
6 03/20/2023 23:39:39 -72.96, 5.14 107.17 03/20/2023 23:38:32 -72.94, 5.13 107.19 2.49 67
7 03/23/2023 10:53:03 -73.05,-163.37 108.05 03/23/2023 10:53:27 -73.05,-163.41 108.05 1.21 24
8 03/23/2023 11:43:49 72.99, 4.06 71.88 03/23/2023 11:42:49 72.99, 4.12 71.87 2.12 60
9 03/25/2023 22:57:13 73.10,-164.48 71.02 03/25/2023 22:57:43 73.12,-164.38 71.03 3.81 30
10 03/25/2023 23:47:56 -73.03, 2.98 109.07 03/25/2023 23:47:09 -73.02, 3.08 109.09 3.53 47
11 03/28/2023 11:01:19 -73.11,-165.48 109.97 03/28/2023 11:02:03 -73.12,-165.49 109.96 1.25 44
12 03/28/2023 11:52:05 73.05, 1.95 69.96 03/28/2023 11:51:25 73.05, 2.04 69.97 2.97 40
13 03/30/2023 23:05:28 73.13,-166.55 69.09 03/30/2023 23:06:19 73.11,-166.59 69.06 3.13 51
14 03/30/2023 23:56:11 -73.07, 0.92 111.00 03/30/2023 23:55:44 -73.06, 0.96 111.00 1.44 27



Historial Predications of SNOs between FY3D and TERRA
